Kuala Lumpur International Airport

Airport
ICAO code: 
WMKK
IATA Code: 
KUL
Summary
ICAO Region: 
APAC
Territory: 
Location: 
Sepang, Selangor
Serving: 
Kuala Lumpur
Elevation: 
71 ft
Coordinates: 
Aerial View: 
2° 45' 39.249" N, 101° 42' 41.545" E
Metar
Observation
WMKK 190730Z VRB03KT 9999 FEW018 31/23 Q1008 NOSIG
Station
Sepang/KL International Airport
Date/Time
2022-01-19 07:30:00
Wind speed
03 kts
Lowest cloud amount
few clouds
Temperature
31°C
Dew point
23°C
Humidity
62%
QNH
1008 hPa
Weather condition
n/a

Kuala Lumpur International Airport (commonly known as KLIA) is one of Southeast Asia's major aviation hubs. It is also Malaysia's main international airport. It is situated in the Sepang district, in the south of the state of Selangor, about 50 km from the capital city, Kuala Lumpur.

Climatology

Tropical Rainforest climate (Köppen climate classification Af) - almost no distinct seasons, average daily temperature around 27°C throughout the year. Extensive cloud cover and heavy rainfall prevent temperatures from rising much over 33°C. The diurnal temperature change is between 2°C and 5°C which is greater than the annual temperature range of 2°C. Rainfall is heavy and is usually convectional and in the afternoon.

Runways

Designator Length Width Surface Rops
14R/32L 4050 60 ASP Yes/Yes
14L/32R 4124 60 ASP Yes/Yes
Airport map: 
Aerial View: 

SKYbrary Partners:

Safety knowledge contributed by: